Header for Extended Forecast Station List Page

Search by: ID | Name | Date | Parm | Value | Avg | % Avg
Sort by: ID | Name | Date | Parm | Value | Avg | % Avg

Enter search or view all records.

Click on id for station plot
#IDNameDateParmValueAvg% Avg
0HWRI1BIG LOST-AT HOWELL RANCH NEAR CHILLY12-09-2019DISCHARGE (KAF)2119111
1MACI1BIG LOST-MACKAY RESERVOIR NEAR MACKAY12-09-2019INFLOW (KAF)375786
2HALI1BIG WOOD-AT HAILEY12-09-2019DISCHARGE (KAF)4139107
3MAGI1BIG WOOD-MAGIC DAM12-09-2019INFLOW (KAF)4847101
4BITM8BITTERROOT-NEAR MISSOULA12-09-2019DISCHARGE (KAF)237233102
5BONM8BLACKFOOT-NEAR BONNER12-09-2019DISCHARGE (KAF)172142121
6BIGI1BOISE-AT GLENWOOD BRIDGE12-09-2019DISCHARGE (KAF)14853278
7LUCI1BOISE-LUCKY PEAK DAM12-09-2019INFLOW (KAF)220MM
8PARI1BOISE-NEAR PARMA12-09-2019DISCHARGE (KAF)293233126
9HOTI1BRUNEAU-NEAR HOT SPRINGS12-09-2019DISCHARGE (KAF)364385
10BULO3BULLY CREEK-BULLY CREEK DAM12-09-2019INFLOW (KAF)248281
11BUDW1BUMPING-BUMPING LAKE DAM12-09-2019INFLOW (KAF)193752
12CHDW1CHELAN-LAKE CHELAN DAM12-09-2019INFLOW (KAF)13717778
13ABOM8CLARK FORK-ABOVE MISSOULA12-09-2019DISCHARGE (KAF)398354112
14DLGM8CLARK FORK-AT DEER LODGE12-09-2019DISCHARGE (KAF)596395
15SRGM8CLARK FORK-AT ST REGIS12-09-2019DISCHARGE (KAF)77180496
16BELM8CLARK FORK-BELOW MISSOULA12-09-2019DISCHARGE (KAF)635594107
17CABI1CLARK FORK-CABINET GORGE DAM12-09-2019INFLOW (KAF)3049393078
18NOXM8CLARK FORK-NOXON RAPIDS DAM12-09-2019INFLOW (KAF)2755376673
19DRMM8CLARK FORK-NR DRUMMOND12-09-2019DISCHARGE (KAF)157MM
20CLUW1CLE ELUM-CLE ELUM LAKE12-09-2019INFLOW (KAF)8711079
21ORFI1CLEARWATER-AT OROFINO12-09-2019DISCHARGE (KAF)732104270
22SPDI1CLEARWATER-AT SPALDING12-09-2019DISCHARGE (KAF)1310225758
23COEI1COEUR D ALENE-COEUR D ALENE LAKE12-09-2019INFLOW (KAF)866123170
24CIBW1COLUMBIA-AT INTL BOUNDARY12-09-2019DISCHARGE (KAF)17720MM
25BONO3COLUMBIA-BONNEVILLE DAM12-09-2019INFLOW (KAF)299524173372
26CHJW1COLUMBIA-CHIEF JOSEPH DAM12-09-2019INFLOW (KAF)192032316683
27GCDW1COLUMBIA-GRAND COULEE DAM12-09-2019INFLOW (KAF)1905617139111
28JDAO3COLUMBIA-JOHN DAY DAM12-09-2019INFLOW (KAF)285733486082
29MCDW1COLUMBIA-MCNARY DAM12-09-2019INFLOW (KAF)270623314082
30PRWW1COLUMBIA-PRIEST RAPIDS DAM12-09-2019INFLOW (KAF)201632140094
31RRHW1COLUMBIA-ROCKY REACH DAM12-09-2019INFLOW (KAF)199022412982
32TDAO3COLUMBIA-THE DALLES DAM12-09-2019INFLOW (KAF)291833918574
33WANW1COLUMBIA-WANAPUM DAM12-09-2019INFLOW (KAF)201602113395
34WELW1COLUMBIA-WELLS DAM12-09-2019INFLOW (KAF)195202357683
35DEDI1DEADWOOD-NEAR LOWMAN12-09-2019INFLOW (KAF)142069
36MODO3DESCHUTES-AT MOODY NR BIGGS12-09-2019DISCHARGE (KAF)1443157792
37ARDW1ENTIAT-NEAR ARDENVOIR12-09-2019DISCHARGE (KAF)202486
38CHEI1FALL RIVER-NEAR CHESTER12-09-2019DISCHARGE (KAF)10311094
39CFMM8FLATHEAD-AT COLUMBIA FALLS12-09-2019DISCHARGE (KAF)882115277
40KERM8FLATHEAD-KERR DAM12-09-2019INFLOW (KAF)1020152067
41TRYO3GRANDE RONDE-TROY12-09-2019DISCHARGE (KAF)33453862
42REXI1HENRYS FORK-AT REXBURG12-09-2019DISCHARGE (KAF)41743596
43ANTI1HENRYS FORK-AT ST. ANTHONY12-09-2019DISCHARGE (KAF)34634999
44IPDI1HENRYS FORK-ISLAND PARK DAM12-09-2019INFLOW (KAF)8211274
45HODO3HOOD-NEAR TUCKER BRIDGE12-09-2019DISCHARGE (KAF)25427991
46SERO3JOHN DAY-AT SERVICE CK12-09-2019DISCHARGE (KAF)21143948
47KADW1KACHESS-KACHESS DAM12-09-2019INFLOW (KAF)475093
48LAUW1KETTLE-AT LAURIER12-09-2019DISCHARGE (KAF)154150103
49PITW1KLICKITAT-NEAR PITT12-09-2019DISCHARGE (KAF)28040270
50BFEI1KOOTENAI-AT BONNERS FERRY12-09-2019STAGE (FT)MMM
51LEOI1KOOTENAI-AT LEONIA12-09-2019DISCHARGE (KAF)14851307114
52LYDM8KOOTENAI-LIBBY DAM12-09-2019INFLOW (KAF)75678796
53LWRI1LITTLE WOOD-LITTLE WOOD DAM12-09-2019INFLOW (KAF)171891
54BERO3MALHEUR-AGENCY VALLEY DAM12-09-2019INFLOW (KAF)163250
55WRMO3MALHEUR-WARM SPRINGS DAM12-09-2019INFLOW (KAF)335955
56MYKO3MCKAY CREEK-NEAR PILOT ROCK12-09-2019DISCHARGE (KAF)4234122
57PATW1METHOW-NEAR PATEROS12-09-2019DISCHARGE (KAF)9510491
58WGCM8MF FLATHEAD-NEAR WEST GLACIER12-09-2019DISCHARGE (KAF)7515349
59CLFW1NACHES-NEAR CLIFFDEL12-09-2019DISCHARGE (KAF)6413547
60NACW1NACHES-NEAR NACHES12-09-2019DISCHARGE (KAF)6312550
61DWRI1NF CLEARWATER-DWORSHAK DAM12-09-2019INFLOW (KAF)73981790
62FCFM8NF FLATHEAD-NEAR COLUMBIA FALLS12-09-2019DISCHARGE (KAF)14617285
63MONO3NF JOHN DAY-AT MONUMENT12-09-2019DISCHARGE (KAF)11527142
64CSDI1NF PAYETTE-CASCADE DAM12-09-2019INFLOW (KAF)8911478
65TONW1OKANOGAN-NEAR TONASKET12-09-2019DISCHARGE (KAF)21829873
66OWYO3OWYHEE-OWYHEE DAM12-09-2019INFLOW (KAF)16518689
67EMMI1PAYETTE-NEAR EMMETT12-09-2019DISCHARGE (KAF)29546264
68ALFW1PEND OREILLE-ALBENI FALLS DAM12-09-2019INFLOW (KAF)3366465972
69HOPI1PEND OREILLE-PEND OREILLE LAKE NR HOPE12-09-2019LAKE ELEVATION (FT)MMM
70PIHI1PORTNEUF-AT POCATELLO12-09-2019DISCHARGE (KAF)597776
71PRTI1PRIEST-NEAR PRIEST RIVER12-09-2019DISCHARGE (KAF)12722756
72RCCM8ROCK CREEK-NEAR CLINTON12-09-2019DISCHARGE (KAF)5346115
73WHBI1SALMON-AT WHITEBIRD12-09-2019DISCHARGE (KAF)991111489
74ARAI1SF BOISE-ANDERSON RANCH DAM12-09-2019INFLOW (KAF)7610076
75HHWM8SF FLATHEAD-HUNGRY HORSE DAM12-09-2019INFLOW (KAF)22225089
76PLDI1SF SNAKE-PALISADES DAM12-09-2019INFLOW (KAF)52660587
77SIFI1SNAKE-AB EAGLE ROCK NR IDAHO FALLS12-09-2019DISCHARGE (KAF)75682292
78AFRI1SNAKE-AMERICAN FALLS RESERVOIR12-09-2019INFLOW (KAF)1307154185
79SNAI1SNAKE-AT BLACKFOOT12-09-2019DISCHARGE (KAF)65476486
80MILI1SNAKE-AT MILNER12-09-2019DISCHARGE (KAF)347455
81WEII1SNAKE-AT WEISER12-09-2019DISCHARGE (KAF)2860422068
82SWAI1SNAKE-BELOW SWAN FALLS12-09-2019DISCHARGE (KAF)1784270866
83BRNI1SNAKE-BROWNLEE DAM12-09-2019INFLOW (KAF)3098442770
84IHDW1SNAKE-ICE HARBOR DAM12-09-2019INFLOW (KAF)6299949566
85JLKW4SNAKE-JACKSON LAKE AT DAM12-09-2019INFLOW (KAF)9711882
86LGSW1SNAKE-LITTLE GOOSE DAM12-09-2019INFLOW (KAF)6043933165
87LGDW1SNAKE-LOWER GRANITE DAM12-09-2019INFLOW (KAF)6043926665
88LMNW1SNAKE-LOWER MONUMENTAL DAM12-09-2019INFLOW (KAF)6299957766
89ALPW4SNAKE-NEAR ALPINE12-09-2019DISCHARGE (KAF)32037585
90ANAW1SNAKE-NEAR ANATONE12-09-2019DISCHARGE (KAF)4733684669
91BFTI1SNAKE-NEAR BLACKFOOT12-09-2019DISCHARGE (KAF)65981181
92HEII1SNAKE-NEAR HEISE12-09-2019DISCHARGE (KAF)51157289
93JKSW4SNAKE-NEAR JACKSON12-09-2019DISCHARGE (KAF)26030585
94SHYI1SNAKE-NEAR SHELLEY12-09-2019DISCHARGE (KAF)73683788
95LLKW1SPOKANE-AT LONGLAKE12-09-2019INFLOW (KAF)1059173361
96SPOW1SPOKANE-AT SPOKANE12-09-2019DISCHARGE (KAF)787MM
97SJMI1ST JOE-AT ST MARIES12-09-2019STAGE (FT)MMM
98SATI1ST MARIES-NEAR SANTA12-09-2019DISCHARGE (KAF)397354
99STRM8ST. REGIS-NEAR ST. REGIS12-09-2019DISCHARGE (KAF)205736
100TNAW1TEANAWAY-BELOW FORKS12-09-2019DISCHARGE (KAF)476870
101TEAI1TETON-NEAR ST. ANTHONY12-09-2019DISCHARGE (KAF)879889
102RILW1TIETON-RIMROCK LAKE NEAR RIMROCK12-09-2019INFLOW (KAF)407553
103PDTO3UMATILLA-AT PENDLETON12-09-2019DISCHARGE (KAF)12014682
104GIBO3UMATILLA-NEAR GIBBON12-09-2019DISCHARGE (KAF)6055108
105UMAO3UMATILLA-NEAR UMATILLA12-09-2019DISCHARGE (KAF)11515077
106TCHW1WALLA WALLA-NEAR TOUCHET12-09-2019DISCHARGE (KAF)16519983
107WSRI1WEISER-NEAR WEISER12-09-2019DISCHARGE (KAF)19620895
108PESW1WENATCHEE-AT PESHASTIN12-09-2019DISCHARGE (KAF)26133179
109UNDW1WHITE SALMON-NEAR UNDERWOOD12-09-2019DISCHARGE (KAF)25231281
110RIDI1WILLOW CREEK-RIRIE DAM12-09-2019INFLOW (KAF)1511134
111EASW1YAKIMA-AT EASTON12-09-2019DISCHARGE (KAF)578567
112KIOW1YAKIMA-AT KIONA12-09-2019DISCHARGE (KAF)46886954
113UMTW1YAKIMA-AT UMTANUM12-09-2019DISCHARGE (KAF)24734372
114KEDW1YAKIMA-KEECHELUS LAKE12-09-2019INFLOW (KAF)5151101
115PARW1YAKIMA-NEAR PARKER12-09-2019DISCHARGE (KAF)33958858